User: anonymous   Login
Location: Theydon Bois
(51.6750°N, 0.1050°E)
Time: 08:24:09
(UTC+01:00)
Language:

Cosmos 1500 Rocket - Orbit

View from above orbital plane
View from above orbital plane
View from above satellite
View from above satellite

Ground track
Ground track

The orbit data is extracted from the following two-line orbital elements,

1 14373U 83099B   18170.86182315 +.00000070 +00000-0 +55049-5 0  9993
2 14373 082.5418 260.9255 0021795 093.3169 045.5419 14.83727067854293
Epoch (UTC): 19 June 2018 20:41:01
Eccentricity: 0.0021795
inclination: 82.5418°
perigee height: 602 km
apogee height: 633 km
right ascension of ascending node: 260.9255°
argument of perigee: 93.3169°
revolutions per day: 14.83727067
mean anomaly at epoch: 45.5419°
orbit number at epoch: 85429

The dashed part of the orbit path shows where the satellite is in the earth's shadow,  

DLR